Location: Dixon
(37.9953°N, 92.0959°W)
Time: 09:33:07
(UTC+00:00)

Hubble Space Telescope - Pass Details

Date: 13 December 2025
Orbit: 479 x 481 km, 28.5° (Epoch: 14 January)

Event Time Altitude Azimuth Distance (km) Brightness Sun altitude
Rises 00:01:58 0° 239° (WSW) 2,524 5.9 -13.9°
Reaches altitude 10° 00:04:39 10° 221° (SW) 1,645 4.2 -14.4°
Maximum altitude 00:07:20 19° 175° (S) 1,210 2.7 -14.9°
Enters shadow 00:09:48 11° 133° (SE) 1,584 2.9 -15.4°
